Wind_Speed
38 39 40 42 43 45 46 47 48 49 51 52 52 53 53 54 54 54 54 54 53 53 53 52 52 51 51 50 50 50 50 49 48 47 46 45 43 42 40 39 38 37 36 35 34 32 31 29 28 26 25 24 23 23 23 23 22 22 22 22 21 21 20 19 19 19 18 18 18 19 19 19 19 20 20 20 21 21 21 21 21 21 21 21 21 21
38 40 41 42 44 45 47 48 48 49 50 51 52 52 53 53 53 53 53 53 52 52 51 50 50 50 49 49 49 49 49 48 47 46 44 43 41 40 38 37 36 35 34 32 31 29 28 26 25 24 23 22 22 22 22 22 21 21 20 20 19 19 18 18 18 18 18 18 18 18 19 19 20 20 20 21 21 21 22 22 22 22 22 22 22 22
39 40 41 43 44 45 47 48 49 49 50 51 51 52 52 52 52 52 52 52 51 51 50 49 49 49 48 49 48 48 48 47 46 44 42 41 39 38 36 35 34 33 31 30 28 27 25 24 23 22 22 21 21 21 21 20 20 19 18 18 17 17 17 17 17 17 17 18 18 18 19 19 20 20 21 21 21 22 22 22 22 23 23 23 23 22
39 40 42 43 44 46 47 47 48 49 50 50 51 52 52 52 52 52 51 50 50 49 49 48 48 48 48 48 48 47 46 45 44 42 40 39 37 35 34 32 31 30 29 27 26 24 23 22 21 21 21 20 20 20 19 19 18 17 17 16 16 16 16 16 17 17 17 18 18 19 19 20 20 21 21 22 22 22 22 23 23 23 23 23 23 23
39 41 42 44 45 46 47 47 48 49 50 50 50 51 51 51 51 51 50 49 49 48 47 47 47 47 47 47 47 46 45 43 42 40 38 36 35 33 31 30 29 28 26 25 23 22 21 21 20 20 20 19 19 18 17 17 16 16 15 15 15 16 16 16 17 17 18 18 19 19 20 20 21 21 22 22 23 23 23 24 24 24 24 23 23 23
40 41 43 44 45 46 47 48 48 49 50 50 50 50 50 50 50 50 49 49 48 47 47 46 46 46 46 46 45 45 43 41 39 37 36 34 32 31 29 28 27 25 24 23 22 21 20 20 20 19 19 18 17 17 16 15 15 15 15 15 15 15 16 16 17 17 18 18 19 20 21 21 22 23 23 24 24 25 25 25 25 25 25 24 24 23
41 42 43 44 45 46 47 47 48 49 49 50 50 50 50 49 49 48 48 48 47 47 46 46 46 45 45 44 44 43 41 39 37 35 33 31 29 28 27 26 25 24 22 21 21 20 20 19 19 18 17 17 16 15 14 14 14 14 14 15 15 15 16 16 17 18 18 19 20 21 22 23 23 24 25 25 26 26 26 27 26 26 26 26 25 24
42 43 43 44 45 46 47 48 48 48 49 49 50 50 50 49 48 47 47 46 46 46 46 46 45 45 43 42 41 40 39 37 35 33 31 29 27 26 24 24 23 22 21 20 20 19 19 18 18 17 16 15 14 14 14 14 14 14 14 14 15 15 16 16 17 18 19 20 21 22 23 24 25 26 26 27 27 28 28 28 28 28 28 27 26 26
42 43 44 44 45 46 47 48 48 48 48 48 48 48 48 48 48 48 47 46 45 45 44 44 44 43 42 40 38 37 36 35 33 31 29 28 26 25 23 23 22 21 20 20 19 19 18 17 16 15 15 14 13 13 13 13 13 14 14 14 15 15 16 17 18 19 20 21 22 23 24 25 26 27 28 28 29 29 30 30 30 29 29 28 28 27
42 43 44 45 45 45 46 46 47 48 48 48 48 47 47 47 47 47 47 46 46 45 44 42 42 41 41 39 37 34 33 32 30 29 26 25 24 23 22 22 21 21 20 19 18 18 17 16 15 14 13 13 13 13 13 13 13 14 14 15 15 16 17 18 19 20 21 22 23 24 25 26 27 28 29 29 30 30 31 31 31 31 30 30 29 28
42 43 44 44 45 45 45 45 46 47 47 48 48 48 47 46 45 46 46 46 45 45 44 42 40 39 38 37 35 33 31 29 28 27 24 23 21 21 20 20 20 19 19 18 17 17 16 15 14 13 13 12 12 13 13 13 13 14 14 15 16 16 17 18 20 21 22 23 24 25 26 27 28 29 29 30 31 31 32 32 32 32 32 31 31 30
42 43 43 44 45 45 45 45 46 46 47 47 47 47 47 47 46 45 44 44 44 43 43 42 40 38 35 34 33 32 30 28 26 25 23 22 20 20 19 19 19 18 17 17 16 15 14 14 13 12 12 12 12 13 13 13 14 14 15 15 16 17 18 19 20 21 22 24 25 25 26 27 28 29 30 31 31 32 32 33 33 33 33 33 32 31
41 42 43 44 44 44 45 45 46 46 47 47 46 46 46 46 46 45 44 43 42 41 41 40 39 37 35 32 31 30 28 26 25 24 22 21 20 19 19 18 17 17 16 15 15 14 13 13 12 12 12 12 12 13 13 13 14 14 15 16 17 18 19 20 21 22 23 24 25 26 27 28 29 30 31 31 32 32 33 33 33 34 34 34 33 33
41 42 43 44 44 44 44 45 45 45 46 46 46 45 45 45 44 44 43 43 42 40 39 37 36 34 32 30 29 29 28 26 24 23 22 20 19 19 18 17 16 16 15 14 14 13 12 12 12 12 12 12 13 13 13 14 14 15 16 17 18 19 20 21 22 23 24 25 26 27 28 29 30 30 31 32 32 33 33 33 34 34 34 34 34 34
41 42 43 43 44 44 44 44 45 45 46 46 46 45 45 45 44 43 42 41 40 39 38 36 34 31 28 26 26 27 27 26 24 23 22 20 19 18 17 16 16 15 14 14 13 12 12 12 12 12 12 13 13 13 13 14 15 15 16 17 18 20 21 22 23 24 24 25 26 27 28 29 30 31 32 32 33 33 34 34 34 34 35 35 35 35
41 42 42 43 44 44 44 44 44 44 45 45 45 44 44 43 43 42 41 40 39 38 36 34 32 30 28 25 24 24 25 24 23 22 21 20 19 18 16 16 15 14 14 13 12 12 12 12 12 12 12 13 13 13 14 14 15 16 17 18 19 20 21 22 23 24 25 26 27 28 29 30 31 32 32 33 34 34 34 35 35 35 35 35 36 35
41 42 42 43 44 44 44 44 44 44 44 44 44 43 42 42 41 40 39 39 38 37 35 33 31 29 28 27 26 24 24 23 23 22 20 20 19 18 16 15 14 14 13 13 12 12 12 12 12 13 13 13 13 14 15 15 16 17 18 19 20 21 22 23 24 25 26 27 28 29 30 31 32 33 33 34 35 35 35 36 36 36 36 36 36 36
41 41 43 43 44 44 44 44 44 44 44 43 43 43 42 41 40 39 38 37 36 35 34 33 31 29 28 27 26 26 25 24 23 22 21 20 19 18 16 14 13 13 13 13 12 13 13 13 13 13 13 13 14 15 15 16 17 18 19 20 21 22 23 24 25 26 27 28 29 30 31 32 33 34 35 35 36 36 36 36 37 37 37 37 37 37
41 42 42 44 44 45 44 43 43 43 43 42 42 41 40 40 39 38 37 36 34 33 32 32 31 30 28 27 26 26 24 23 22 21 20 19 19 18 16 14 13 12 12 12 13 13 13 14 14 14 14 14 15 16 16 17 18 19 20 21 22 23 24 25 26 27 28 29 30 31 33 34 35 36 36 36 37 37 37 37 37 37 37 37 37 37
41 42 42 43 44 45 44 43 43 42 42 41 41 39 38 38 37 36 35 34 33 32 31 30 30 29 28 27 26 25 24 23 22 20 19 18 18 17 16 14 13 12 12 12 13 14 14 15 15 15 15 15 16 17 18 19 19 20 21 22 23 24 25 26 27 28 30 31 32 33 35 36 37 37 38 38 38 38 38 38 38 38 38 37 37 37
41 42 43 43 44 44 44 43 43 42 41 40 40 38 37 36 35 34 33 32 31 30 29 29 28 28 28 27 26 25 24 23 22 21 19 18 18 17 16 15 14 13 12 12 13 14 15 16 16 16 16 16 17 18 19 20 21 22 23 24 25 26 27 28 29 30 31 33 34 35 36 37 38 39 39 39 39 39 38 38 38 38 37 37 37 37
41 42 43 44 44 44 44 43 42 41 40 39 38 37 36 35 34 33 32 31 29 28 28 27 27 27 27 26 26 25 23 23 22 21 19 18 18 17 16 15 15 14 14 13 13 14 15 16 17 17 17 18 18 19 20 21 22 23 24 25 26 27 28 29 31 32 33 34 36 37 38 39 39 40 40 40 40 39 39 39 38 38 37 37 37 36
41 42 43 44 44 44 43 42 41 40 39 38 36 35 34 33 32 31 31 30 29 28 28 27 27 27 27 26 25 24 23 22 22 21 19 19 18 17 17 16 16 16 16 14 14 14 15 16 17 18 18 19 20 20 21 22 23 24 25 26 27 28 29 31 32 33 35 36 37 38 39 40 40 40 40 41 41 40 40 39 38 38 37 36 36 35
42 42 43 43 43 43 42 41 40 39 38 37 35 34 33 32 30 30 29 29 28 28 28 28 27 26 26 25 24 23 22 22 21 21 20 19 18 18 17 17 18 18 18 17 16 16 16 17 17 18 19 20 21 21 22 23 24 25 26 27 28 29 31 32 34 35 36 38 39 39 40 40 41 41 41 42 42 41 41 40 39 38 37 36 35 34
42 42 42 42 42 42 41 40 39 37 36 35 34 34 33 32 31 30 29 28 28 28 27 26 25 24 24 24 23 22 22 21 21 20 20 19 18 18 18 18 19 19 20 19 19 18 18 18 18 19 20 21 22 22 23 24 25 26 27 28 29 31 32 33 35 36 38 39 40 40 41 41 41 42 42 43 43 42 42 41 39 38 36 35 34 33
42 42 42 42 41 41 40 39 38 36 35 34 33 32 32 31 30 29 28 28 27 27 26 25 24 23 22 22 21 21 21 20 20 20 20 19 19 19 19 18 19 20 20 21 21 21 21 20 20 20 21 22 23 23 24 25 26 27 28 29 31 32 33 35 36 37 38 39 40 41 41 41 42 42 43 43 44 43 43 41 40 38 37 35 33 32
41 41 41 41 40 39 39 38 36 35 34 33 32 31 30 30 29 28 26 26 26 26 25 24 23 22 21 20 20 20 20 20 20 20 20 19 19 19 19 19 19 19 20 21 21 22 23 23 22 22 23 23 24 25 26 26 27 28 29 31 32 33 34 36 37 38 39 40 40 41 41 42 42 43 43 44 44 44 43 42 41 39 37 35 33 31
41 40 40 40 39 38 37 36 35 34 33 32 31 30 29 28 27 26 25 25 25 25 24 23 22 21 20 18 18 19 19 20 20 20 20 20 20 20 20 20 20 20 19 19 20 21 23 23 24 24 24 25 26 26 27 28 28 29 30 32 33 34 35 36 37 38 39 40 40 41 41 42 42 43 43 44 44 44 44 43 41 40 37 35 33 31
40 39 39 38 38 37 36 35 34 33 32 31 30 29 28 27 26 25 24 24 24 23 23 22 21 20 19 18 17 17 18 19 20 20 20 20 20 21 21 21 21 20 20 19 18 18 20 22 24 25 25 26 27 28 28 29 30 30 31 32 33 34 35 36 37 38 39 39 40 41 41 42 42 43 43 43 43 43 43 43 42 40 38 35 32 30
39 39 38 37 36 36 35 34 33 32 31 30 30 29 28 27 25 24 24 23 23 22 22 21 20 20 19 18 16 16 17 18 20 20 20 20 20 21 21 21 21 21 21 20 19 17 17 19 21 23 25 26 27 28 29 30 31 31 32 32 33 34 35 36 36 37 38 39 40 40 41 41 42 42 42 42 42 42 42 42 41 40 38 35 32 30
38 37 37 36 35 35 34 33 32 31 31 30 29 29 28 27 26 25 24 23 22 21 21 20 19 18 18 18 17 17 17 19 20 21 21 21 21 22 22 22 22 22 23 23 22 21 19 19 20 21 23 25 26 28 29 30 31 31 32 32 33 34 34 35 36 37 38 38 39 40 40 40 40 41 40 40 40 40 40 40 40 39 37 35 32 29
37 37 36 35 35 34 33 32 32 31 30 30 29 29 28 27 26 25 24 23 23 22 20 19 17 16 16 17 17 18 19 19 20 21 21 21 21 22 23 23 23 23 23 24 24 24 24 22 21 21 23 24 26 27 28 29 30 31 32 32 33 34 34 35 36 37 38 38 39 39 39 39 39 39 39 39 39 38 38 38 38 38 36 34 32 29
37 36 36 35 34 33 32 32 31 30 30 30 29 29 28 27 27 26 25 24 23 22 21 19 17 16 15 15 16 17 18 20 21 21 21 21 22 22 23 23 23 23 24 24 25 25 26 26 25 24 24 24 25 27 28 29 30 31 32 32 33 34 35 36 37 38 39 39 39 40 40 39 39 38 38 37 37 36 36 36 36 36 35 33 31 29
36 36 35 35 34 33 32 31 30 30 30 29 29 29 28 27 27 27 26 25 24 23 21 20 18 17 16 15 15 16 18 19 20 21 22 22 22 22 23 23 24 24 24 25 25 25 26 27 27 27 26 26 26 27 28 29 30 31 32 33 34 35 36 37 38 39 40 40 40 40 40 40 39 38 37 36 35 35 34 34 34 34 33 32 31 29
36 35 35 34 33 32 31 31 30 30 30 29 29 28 28 28 27 27 27 26 25 24 22 20 19 18 17 17 17 17 18 19 20 21 22 22 23 23 23 24 24 25 25 26 26 26 27 27 28 29 29 28 27 27 28 29 30 31 32 33 35 36 37 39 40 40 41 41 41 41 41 40 39 38 36 35 34 33 33 32 32 32 32 31 30 29
35 35 34 33 32 31 31 30 30 30 30 29 29 28 28 27 27 27 27 26 26 25 23 21 19 18 17 17 18 19 20 20 21 22 22 23 23 23 24 24 25 26 26 27 27 27 28 28 29 29 30 30 29 29 29 30 31 32 33 34 36 37 38 39 40 41 41 41 41 41 40 39 38 36 35 33 32 31 31 31 31 31 30 30 29 28
35 34 33 32 32 31 30 30 30 30 30 29 29 28 28 27 27 27 27 27 26 25 24 22 20 19 18 17 18 19 20 21 22 23 23 24 24 24 24 25 26 26 27 28 28 29 29 29 29 30 30 31 31 31 31 31 32 33 34 36 37 38 39 40 40 41 41 41 41 40 39 38 36 35 33 32 31 30 30 30 30 30 29 28 28 27
34 34 33 32 32 31 30 30 30 30 29 29 28 28 27 27 26 27 27 27 27 26 25 24 22 21 20 19 19 20 21 22 23 24 24 25 25 25 26 26 26 27 28 29 29 30 30 31 31 31 31 31 31 32 33 34 35 36 36 37 38 39 39 40 40 41 41 40 40 39 37 36 35 33 32 31 30 29 29 29 29 29 28 28 27 26
34 34 33 32 32 31 31 30 30 29 29 28 28 27 27 26 26 26 26 27 27 27 26 25 24 23 22 21 21 22 22 23 24 25 26 26 26 27 27 27 28 28 29 30 30 31 32 32 32 33 33 33 33 33 34 36 37 38 38 39 39 39 39 40 40 40 40 39 38 37 36 34 33 32 31 31 30 30 29 29 29 29 28 27 26 25
34 34 33 32 31 31 30 30 29 29 29 28 28 27 26 25 25 25 25 26 26 26 26 25 24 23 23 22 22 23 23 24 25 26 26 27 27 28 28 28 29 29 30 30 31 32 32 33 33 34 34 35 35 35 36 37 38 39 40 40 39 39 39 39 40 39 39 38 37 36 35 33 32 31 31 30 30 30 30 30 29 29 28 27 26 25
34 33 33 32 31 30 29 29 28 28 28 28 27 26 25 25 24 24 24 24 24 25 24 24 24 24 23 23 23 23 24 24 25 26 26 27 28 28 29 29 29 30 30 31 31 32 33 34 34 35 35 36 36 37 37 38 38 39 39 40 40 39 39 39 39 39 38 37 36 35 34 33 32 31 30 30 29 29 29 29 29 29 28 28 27 25
33 33 32 31 30 29 29 28 28 28 28 27 26 25 25 24 24 23 23 23 23 23 23 23 23 23 23 23 23 23 23 24 25 25 26 27 27 28 29 29 30 30 31 31 32 32 33 34 35 35 36 36 37 37 38 38 38 38 39 39 40 40 40 39 38 38 37 36 35 34 34 33 32 31 30 29 28 28 28 29 29 28 28 27 27 25
33 32 31 30 29 29 28 28 28 28 28 27 26 26 25 24 23 23 23 22 22 22 22 22 21 21 21 22 22 23 23 24 25 25 26 27 27 28 29 29 30 31 31 32 32 33 34 35 35 36 36 37 37 38 38 38 38 38 38 39 40 41 41 39 38 37 36 35 34 34 33 33 32 30 29 28 27 27 27 27 27 28 27 27 26 24
32 32 31 30 29 29 28 28 28 27 27 27 27 26 25 24 24 23 23 23 22 22 22 21 21 20 20 20 21 22 23 24 24 25 26 26 27 28 29 29 30 31 32 33 33 34 35 35 35 36 36 37 37 38 38 38 38 39 39 40 40 41 40 40 38 37 35 34 34 34 33 32 31 29 28 26 25 25 25 26 26 26 26 26 24 23
32 32 31 30 29 29 28 28 28 27 27 27 26 26 25 25 24 23 23 23 23 22 22 21 21 20 20 20 20 21 22 23 24 25 25 26 27 28 28 29 30 31 32 33 34 35 35 35 35 35 36 36 36 37 38 39 39 40 40 40 40 40 39 38 37 36 35 35 34 33 33 31 30 28 26 24 23 23 23 24 25 25 24 24 22 21
32 31 30 30 29 28 28 28 28 27 27 27 26 26 26 25 24 23 23 23 23 22 22 22 21 20 20 20 20 20 21 22 22 24 24 25 26 27 28 29 30 30 31 32 33 34 35 35 35 35 35 36 36 37 38 39 40 41 41 41 40 39 38 37 36 36 35 35 34 33 32 30 28 26 24 22 20 20 22 23 24 24 23 22 20 18
32 31 30 29 29 28 28 28 27 27 27 27 26 26 26 25 24 24 23 23 22 22 22 22 22 21 21 21 21 21 21 21 22 23 24 25 25 26 27 28 29 30 30 31 32 33 34 34 35 35 35 36 36 37 39 40 40 41 41 41 40 39 38 37 36 36 35 35 34 33 32 30 28 25 22 20 18 18 19 21 22 23 22 20 18 16
32 31 30 29 29 28 28 27 27 27 27 27 26 26 25 25 24 24 23 23 23 22 22 22 22 22 21 21 21 22 22 22 23 23 24 24 25 26 26 27 28 28 29 30 31 31 32 33 34 35 35 36 37 38 39 40 41 41 42 41 40 39 38 37 37 36 35 34 33 32 31 30 28 26 22 19 18 17 18 19 21 21 21 19 17 15
31 31 30 29 29 28 27 27 27 26 26 26 26 25 25 25 24 24 24 23 23 23 23 23 22 22 22 22 22 22 22 23 23 24 24 25 25 26 26 27 27 28 28 29 29 30 30 31 32 34 35 36 38 39 40 41 42 42 42 41 40 40 39 38 37 36 35 34 33 32 31 30 28 25 22 20 18 17 17 19 20 20 20 18 17 15
31 31 30 29 28 28 27 27 27 26 26 26 25 25 25 25 24 24 24 23 23 23 23 23 23 23 23 22 22 23 23 23 23 24 25 25 26 26 27 27 28 28 28 28 28 28 28 28 30 32 34 37 38 40 41 42 42 42 41 41 40 40 39 38 37 36 35 33 32 31 30 29 27 24 21 19 18 17 17 18 20 20 20 19 17 16
31 31 30 29 28 28 27 27 26 26 26 26 25 25 25 24 24 24 23 23 23 23 23 24 24 24 24 23 23 23 23 24 24 24 25 26 26 27 28 28 28 28 28 28 28 28 27 27 28 29 32 35 38 39 40 41 42 41 41 40 40 39 39 38 37 35 34 32 31 30 29 28 26 23 21 19 18 17 17 18 19 21 20 19 18 17
Wind_Direction
323 323 323 322 321 320 320 321 321 321 322 322 322 322 322 322 322 322 322 323 323 323 323 323 323 324 324 324 324 324 325 325 325 326 326 326 326 327 327 327 326 326 326 327 327 328 329 330 330 331 331 331 331 332 333 334 335 336 337 338 339 341 343 346 348 350 352 353 354 354 355 354 354 353 353 351 350 349 348 346 345 344 342 341 340 339
323 322 321 321 320 320 320 321 321 322 322 322 323 323 323 323 322 323 323 323 323 323 323 324 324 324 325 325 325 325 325 326 326 327 327 327 327 328 328 328 328 328 328 329 330 331 332 332 332 332 332 332 333 334 335 336 337 339 340 343 345 348 351 354 356 357 358 359 358 358 357 356 355 354 353 351 350 349 347 346 345 343 342 341 340 338
322 321 320 320 320 320 321 322 322 323 323 323 323 323 323 323 323 323 323 323 323 324 324 325 325 325 325 325 325 325 326 326 327 328 328 328 329 329 329 329 329 330 331 332 333 333 333 333 333 333 333 334 335 336 337 339 341 344 346 349 353 356 358 360 1 1 1 0 360 358 357 356 355 353 352 351 349 348 347 346 344 343 341 340 338 337
321 320 320 320 320 321 322 322 323 323 323 323 323 323 323 323 323 323 324 324 324 324 325 325 326 326 326 326 326 326 327 327 328 329 329 330 330 331 331 331 331 332 333 334 334 334 334 334 334 334 334 336 337 339 341 344 347 350 354 357 360 2 3 3 3 2 1 0 359 358 356 355 354 353 351 350 349 348 347 345 344 342 341 339 338 336
320 320 320 321 321 322 323 323 324 324 323 323 323 323 323 324 324 324 324 324 325 325 326 326 327 327 327 326 327 327 328 329 329 330 331 331 332 333 333 333 333 334 335 335 335 335 335 335 335 336 337 339 341 344 347 351 354 358 1 3 4 5 4 3 2 1 0 359 358 357 355 354 353 352 351 349 348 347 346 345 343 342 340 339 337 336
321 321 321 322 322 323 324 324 324 324 324 324 324 324 324 324 324 324 325 325 326 326 327 327 327 328 328 327 327 328 329 330 331 332 333 333 334 334 334 334 335 335 336 336 336 335 335 336 337 338 340 343 346 350 354 358 1 4 5 6 6 5 4 2 1 360 359 357 356 355 354 353 352 351 350 349 347 346 345 344 343 341 339 338 336 335
322 322 323 323 324 324 324 325 325 325 324 324 324 324 325 325 325 325 325 326 327 327 328 328 329 329 328 328 328 329 330 331 332 333 335 335 336 336 336 336 336 336 336 336 336 336 337 338 340 342 345 348 352 357 0 3 5 6 6 6 5 4 2 0 359 358 357 355 354 353 352 351 350 349 349 348 347 346 345 344 342 341 339 337 335 333
323 323 324 324 324 325 325 325 325 325 325 325 325 325 325 325 326 326 326 327 328 328 329 329 330 329 329 329 329 330 330 332 333 335 337 338 338 337 337 337 337 337 337 337 337 338 340 342 344 347 350 354 358 1 4 6 6 6 5 4 3 2 360 358 357 355 354 353 352 351 351 350 349 348 348 347 346 345 344 343 342 340 339 337 335 333
324 324 324 325 325 325 325 325 326 326 325 325 325 325 326 326 327 327 328 328 329 329 330 330 330 330 330 330 330 331 332 333 335 337 338 339 339 338 337 338 337 337 338 339 340 341 343 346 348 352 355 359 2 4 5 5 4 4 3 2 0 359 357 355 354 353 352 351 350 350 349 349 348 347 347 346 345 344 343 342 341 340 338 337 335 333
325 325 325 325 326 326 326 326 326 326 325 325 325 326 327 327 328 328 329 329 330 330 330 331 331 331 330 331 332 333 334 336 337 339 341 341 340 338 338 338 339 339 340 341 343 345 347 350 353 356 359 2 3 4 3 3 2 1 360 358 357 355 353 352 351 350 350 349 349 348 348 347 347 346 345 345 344 343 342 341 341 339 338 337 335 333
325 325 326 326 326 326 326 326 326 326 326 326 327 327 328 329 329 329 329 329 330 331 331 331 331 332 332 332 332 334 336 338 340 341 342 343 342 340 339 340 341 341 342 345 347 348 351 353 356 359 1 2 2 2 1 360 358 357 356 354 353 351 350 349 348 348 347 347 347 346 346 346 345 344 344 343 342 342 341 340 339 338 337 336 335 333
326 326 326 326 326 327 327 326 326 327 327 327 328 328 329 330 330 330 330 330 331 331 332 332 332 332 334 334 334 335 336 339 341 342 342 343 343 342 342 343 344 345 346 348 350 352 354 356 359 1 1 1 360 359 357 356 355 354 352 350 349 348 347 346 346 345 345 345 345 345 344 344 343 343 342 341 341 340 340 339 338 337 336 335 334 333
327 327 327 327 327 327 327 327 327 327 328 328 329 330 330 330 331 331 331 331 331 332 332 332 332 333 335 336 337 337 338 339 341 343 343 344 345 345 345 346 347 348 349 351 353 355 356 358 360 0 359 358 357 355 353 352 351 349 348 346 345 344 344 343 343 343 343 343 343 343 342 342 341 340 340 339 339 338 338 338 337 336 335 335 333 332
327 327 327 327 328 328 328 329 329 329 329 329 330 331 331 331 331 331 332 332 332 333 333 333 333 334 336 338 339 339 339 340 342 344 345 347 349 350 349 350 351 351 352 354 355 357 358 359 359 358 356 354 352 351 349 348 346 345 344 343 342 341 341 341 340 341 341 341 341 340 340 339 339 338 338 337 337 337 336 336 336 335 335 334 333 332
328 328 328 328 328 329 330 330 331 330 330 331 331 332 331 331 332 332 332 332 332 333 334 335 335 335 337 339 341 341 339 340 342 345 347 349 352 355 354 354 354 354 355 355 356 358 359 358 356 354 352 350 348 346 345 343 342 341 340 340 339 339 338 338 338 338 338 338 338 338 338 337 336 336 335 335 335 335 335 335 335 335 334 333 332 331
329 329 329 329 329 330 331 332 332 332 331 331 332 332 332 332 332 332 332 332 332 333 334 335 336 337 337 340 343 344 343 342 344 347 350 352 355 358 359 357 356 355 355 355 356 357 357 356 353 351 348 346 344 342 341 339 339 338 337 337 336 336 335 335 335 335 336 336 336 335 335 335 334 334 334 334 334 334 335 335 335 335 334 333 332 331
330 330 330 330 331 332 333 333 333 333 332 332 332 332 332 332 332 332 332 332 333 333 334 335 337 338 338 339 342 345 346 346 348 351 354 356 358 360 1 359 357 356 354 354 354 354 354 352 350 348 345 342 340 338 337 336 335 335 335 334 333 333 332 332 333 333 333 333 333 333 333 333 332 332 332 333 333 334 334 335 335 334 334 332 331 330
331 331 331 332 332 333 334 334 334 333 332 332 332 332 332 332 332 332 333 333 333 334 335 336 338 339 340 341 342 345 347 349 351 354 356 356 358 360 1 360 358 356 354 352 351 350 349 347 346 343 341 338 337 335 334 333 333 332 332 331 331 330 330 330 330 331 331 331 331 331 331 331 331 331 332 332 333 333 334 334 334 334 333 332 330 329
332 333 333 333 333 334 334 335 334 334 333 333 333 333 333 332 333 333 334 334 335 335 336 337 338 340 342 343 345 347 349 351 354 356 357 356 356 357 359 359 358 357 354 350 347 345 345 343 342 340 337 335 333 332 331 331 330 330 329 328 328 328 328 328 328 329 329 330 330 330 330 330 330 331 331 332 332 333 333 334 334 333 332 331 330 328
334 334 334 334 334 334 335 335 335 334 333 333 333 333 333 333 333 334 334 335 335 336 337 338 339 341 343 345 347 349 351 353 355 357 357 357 356 355 355 356 357 357 354 348 344 341 340 339 338 336 334 332 330 329 328 328 328 327 327 326 326 326 326 327 327 328 329 329 329 329 329 330 330 330 330 331 332 332 333 333 333 332 332 330 329 327
335 335 335 335 335 335 335 335 335 335 334 334 334 334 334 334 334 335 335 336 336 337 338 339 341 342 344 347 348 350 352 353 354 355 355 356 355 353 352 352 353 354 353 348 342 339 337 336 334 332 331 329 328 327 326 326 325 325 324 324 324 324 325 326 327 327 328 328 328 328 328 329 329 329 329 330 331 331 332 332 332 332 331 329 327 326
336 336 336 336 336 335 335 335 335 335 334 334 334 334 334 335 335 336 336 337 338 339 340 341 342 343 345 347 348 349 352 352 352 353 353 353 353 352 350 349 348 348 348 346 341 337 334 332 331 329 328 326 325 324 324 323 323 323 323 323 323 324 325 325 326 327 327 327 327 327 328 328 328 328 329 329 330 330 331 331 331 331 330 328 326 325
337 337 336 336 336 336 335 335 335 335 334 334 335 335 335 335 336 337 337 338 338 340 341 342 343 345 347 347 348 349 351 351 351 351 350 349 349 349 348 345 343 342 342 341 339 336 333 330 328 327 325 324 323 322 322 321 321 321 321 322 322 323 324 325 326 326 326 326 326 326 327 327 327 328 328 328 329 329 330 330 330 330 329 327 326 324
338 338 337 337 336 336 335 335 335 335 335 335 335 336 336 337 338 338 339 339 340 341 342 344 345 346 347 347 347 348 349 350 349 348 347 346 346 346 345 342 340 339 338 336 335 333 332 329 327 325 323 322 321 320 320 320 320 320 320 321 322 323 324 325 325 326 326 326 326 326 326 326 327 327 328 328 328 328 329 329 329 329 328 327 325 323
338 338 337 337 336 336 335 335 335 335 336 336 336 337 338 338 339 340 341 342 342 343 344 345 346 346 346 346 346 346 346 347 347 345 343 342 342 342 341 340 338 337 335 333 331 331 330 328 326 324 323 321 320 319 319 319 319 319 320 321 322 323 324 325 325 325 325 325 325 325 326 326 327 327 327 327 327 327 328 328 328 328 327 326 325 322
339 338 337 336 336 335 335 335 336 336 336 337 337 338 339 339 340 341 342 343 344 344 344 345 345 344 345 346 345 344 342 343 343 342 340 339 339 339 339 337 336 335 334 331 330 328 328 327 326 324 322 321 320 319 319 319 319 320 321 322 323 324 324 325 325 325 325 325 325 325 326 327 327 327 327 327 327 327 327 327 327 327 327 326 325 322
338 338 337 336 336 336 336 336 336 337 337 338 339 340 340 341 342 343 343 344 344 344 344 345 344 344 343 343 342 341 339 339 339 339 338 337 336 337 337 336 335 334 333 331 329 327 326 325 324 323 322 321 320 319 319 319 320 321 322 323 323 324 324 324 324 324 324 325 325 326 326 327 327 328 327 327 326 326 325 325 326 326 326 326 325 323
338 338 337 336 336 336 336 336 337 338 338 339 340 341 342 343 343 343 343 344 344 345 344 344 344 343 341 340 339 338 337 335 336 337 337 336 335 335 335 334 332 331 330 330 328 326 324 323 323 322 321 320 320 320 320 320 321 322 323 323 324 324 324 324 324 324 324 325 325 326 327 327 328 328 327 326 325 325 324 324 324 325 326 326 325 324
338 338 337 337 337 337 337 337 338 338 339 340 341 342 343 344 344 344 344 344 345 346 344 343 343 342 340 339 337 336 334 333 334 335 335 335 334 333 333 332 330 328 327 327 327 325 323 322 321 321 321 320 320 320 321 321 322 323 323 324 324 324 324 324 324 324 325 325 326 327 327 327 327 327 326 325 324 323 323 322 323 324 325 326 326 325
339 338 338 337 337 337 337 338 338 339 340 341 342 343 343 344 345 346 346 346 347 347 345 343 341 340 338 337 335 334 333 333 334 334 334 334 333 332 331 330 329 327 326 325 325 323 321 320 320 320 320 320 321 321 321 322 323 323 324 324 324 324 324 324 324 325 325 326 326 327 327 327 327 326 325 324 323 322 321 321 321 322 324 325 326 326
339 339 338 338 338 338 338 339 339 340 341 342 343 343 344 345 346 346 347 348 348 347 346 343 340 338 336 335 333 333 334 334 334 334 334 334 332 331 331 330 330 328 326 326 325 325 323 321 320 320 320 321 321 321 322 323 323 324 324 325 325 325 324 324 325 325 326 326 326 326 326 326 326 325 324 323 322 321 320 320 321 321 323 325 327 327
340 340 339 339 339 339 339 340 340 341 342 343 343 344 344 345 345 346 347 348 348 348 347 344 340 337 336 334 333 334 334 335 334 334 334 334 333 331 330 330 330 329 328 327 326 326 325 324 323 322 322 323 323 323 324 324 324 325 325 326 326 325 325 325 325 326 326 326 326 326 326 325 325 324 323 322 321 321 320 320 320 321 323 325 327 327
341 341 340 340 340 340 340 341 341 342 343 343 344 344 344 345 345 346 347 347 348 348 346 344 340 337 335 335 335 335 334 334 334 334 334 334 333 332 331 330 330 330 329 328 327 327 327 327 326 326 326 327 327 327 326 326 326 326 327 327 327 326 326 326 326 326 327 327 327 326 326 325 325 324 324 323 322 321 320 320 320 322 323 325 327 328
341 341 341 341 341 341 341 342 342 343 343 344 344 345 345 345 345 346 346 347 347 347 346 343 340 336 334 334 335 336 335 335 334 334 334 334 333 333 332 331 330 330 330 329 329 328 328 328 329 329 330 331 331 330 329 329 328 329 328 328 328 328 328 327 327 327 327 327 327 327 326 326 326 325 325 324 323 322 321 321 321 322 324 326 327 328
342 342 342 342 342 342 342 343 344 344 344 345 345 345 345 345 345 345 345 345 346 345 345 343 340 337 334 334 335 336 337 337 336 335 335 334 334 334 333 332 332 331 331 331 330 330 330 331 331 331 332 333 333 333 332 331 331 331 330 330 329 329 329 329 328 328 328 328 328 327 327 327 327 327 327 326 325 324 323 322 323 324 325 327 328 328
343 343 343 343 343 343 343 344 345 345 346 346 346 346 346 345 345 345 345 344 344 343 343 342 340 338 335 333 334 336 337 337 337 337 336 335 335 335 335 334 333 333 333 332 332 332 332 333 333 333 334 334 335 335 334 333 332 332 331 331 330 330 330 329 329 329 329 328 328 328 328 328 329 329 329 328 327 326 325 324 324 325 326 327 328 328
344 343 343 343 344 344 345 345 346 347 347 347 346 346 346 345 345 344 344 343 342 341 341 341 340 338 336 334 334 335 336 337 337 337 337 336 336 336 336 336 335 335 334 334 334 334 334 334 334 334 335 335 336 336 335 334 334 333 332 331 331 331 330 330 330 329 329 329 329 329 330 330 331 331 331 330 329 327 326 325 325 326 327 328 328 327
344 344 344 344 345 345 346 347 347 347 348 347 347 346 345 345 344 344 343 342 341 340 339 339 338 337 336 335 335 336 336 337 337 337 337 337 337 337 337 337 337 336 336 336 335 335 335 335 335 335 336 336 336 336 336 335 334 333 332 332 332 331 331 331 330 330 330 330 331 331 332 333 333 333 333 332 330 329 328 327 326 326 327 328 328 327
345 345 345 346 346 347 347 347 348 348 348 347 347 346 345 344 343 343 342 341 340 339 338 337 336 336 335 335 335 336 336 337 337 337 337 338 338 338 338 338 337 337 337 336 336 336 335 335 336 336 336 336 337 337 336 335 334 333 332 332 332 332 332 331 331 331 332 332 333 334 334 335 336 336 335 334 332 331 329 328 327 327 327 328 328 327
346 346 346 347 347 347 348 348 348 348 348 347 347 346 345 344 343 342 341 340 339 338 337 335 334 333 333 333 334 335 335 336 336 337 337 338 338 338 338 338 337 337 337 336 336 336 336 335 336 336 336 336 336 336 336 335 334 333 332 331 332 332 333 333 333 333 334 335 335 336 337 338 339 339 338 336 334 332 330 329 328 328 328 328 328 328
347 347 347 347 347 348 348 348 348 348 348 347 346 345 344 343 342 342 341 339 338 337 335 333 331 330 330 330 330 331 332 334 335 336 337 337 338 338 338 337 337 337 336 336 336 336 335 335 335 335 335 335 335 335 335 334 333 332 332 332 332 333 334 335 335 336 337 337 338 338 339 340 341 341 340 339 336 333 331 329 328 328 328 329 329 329
348 348 348 348 347 347 347 347 347 347 347 347 346 345 343 342 341 341 340 338 337 335 333 331 329 327 326 326 327 328 329 331 333 335 336 337 337 337 337 336 336 336 336 336 336 335 335 335 334 334 334 334 334 334 334 334 333 332 332 332 333 334 336 337 338 339 339 340 340 340 341 342 343 343 342 340 338 334 331 329 328 329 329 330 331 331
349 348 348 347 347 347 347 347 347 347 346 346 345 344 343 342 341 340 339 338 337 335 332 330 327 325 323 323 324 325 327 329 331 333 335 335 336 336 336 336 335 336 335 336 335 335 335 334 334 334 334 334 334 334 334 333 333 333 333 334 335 336 338 339 340 341 342 342 342 342 343 344 345 345 345 342 339 335 332 329 329 329 330 331 332 333
349 348 348 347 347 347 347 347 347 346 346 345 344 343 342 341 341 340 339 338 337 336 333 330 327 324 321 320 321 323 325 327 329 331 333 334 335 335 335 335 335 335 335 335 335 335 335 334 334 334 334 334 334 334 333 333 333 334 335 336 337 338 340 341 342 343 343 344 344 344 345 346 347 348 347 345 341 336 332 330 330 331 332 334 335 336
349 348 348 347 347 347 347 347 346 346 346 345 344 343 342 341 340 339 339 338 337 336 335 332 329 325 322 320 319 320 323 325 327 329 330 332 333 334 334 335 335 335 335 335 335 335 335 334 334 334 334 334 334 333 333 333 333 335 336 337 338 340 341 342 343 344 345 345 346 346 347 349 350 350 350 348 344 338 334 331 331 332 334 337 338 340
349 348 348 347 347 347 347 346 346 346 345 345 344 343 341 340 339 339 338 338 337 336 335 334 331 328 324 322 320 320 321 323 324 326 328 329 331 332 333 334 334 334 335 334 334 334 334 334 333 333 333 333 333 333 333 333 334 335 337 338 339 341 342 343 344 345 346 347 348 349 350 352 353 354 355 352 347 341 335 332 332 334 337 340 342 345
349 348 348 347 347 347 347 346 346 346 345 344 343 342 341 339 338 338 337 337 337 337 336 335 334 331 328 325 323 321 321 322 323 324 326 327 328 329 330 331 332 333 333 333 333 333 333 333 333 332 333 333 333 333 333 334 335 337 338 339 341 342 343 345 346 347 348 349 350 351 353 355 357 359 359 356 350 343 337 334 334 336 340 344 348 351
349 348 348 347 347 347 346 346 346 345 345 344 343 341 340 339 338 337 336 336 337 337 337 336 335 334 331 329 327 325 323 323 323 323 324 325 326 327 328 329 329 330 330 331 331 332 332 332 332 332 333 334 334 335 334 335 336 338 339 340 341 343 344 346 348 349 350 351 352 354 356 358 0 1 0 357 352 346 339 334 334 337 343 348 353 357
349 349 348 348 347 347 346 346 345 345 344 343 342 341 340 339 338 337 336 336 336 337 337 337 336 336 334 332 330 328 327 326 325 324 324 324 325 325 326 327 327 328 328 329 330 331 331 332 333 333 334 336 336 337 337 337 338 339 340 341 342 343 345 347 349 351 352 353 355 357 359 1 2 2 0 358 354 349 341 335 334 338 345 352 357 1
350 349 348 348 347 347 346 345 345 344 344 343 342 341 340 339 338 337 336 336 336 337 337 337 337 337 336 335 333 332 330 329 328 327 326 326 326 326 326 327 327 327 328 329 330 331 332 334 336 337 338 338 339 339 339 338 339 340 341 342 342 343 345 347 350 352 354 356 358 0 2 3 4 2 0 357 354 350 343 337 334 337 345 352 358 2
350 349 349 348 347 347 346 345 344 344 343 343 342 342 341 340 338 337 337 336 336 336 337 337 338 338 337 337 336 335 334 332 331 330 329 329 329 329 329 329 329 329 330 331 332 334 336 338 341 343 343 343 342 341 340 339 339 340 341 342 343 344 345 347 350 354 357 359 1 3 4 5 6 5 1 356 352 349 344 339 336 338 345 352 356 360
Height
3052 3050 3048 3046 3044 3041 3039 3037 3035 3032 3028 3025 3023 3020 3017 3014 3011 3008 3005 3003 3000 2997 2994 2991 2989 2986 2983 2980 2977 2975 2972 2970 2967 2965 2963 2960 2957 2955 2953 2950 2948 2946 2944 2941 2940 2938 2936 2934 2933 2931 2930 2928 2927 2925 2924 2923 2921 2920 2919 2917 2916 2915 2914 2913 2911 2910 2909 2908 2907 2905 2904 2903 2902 2900 2899 2898 2896 2895 2894 2893 2891 2890 2889 2888 2886 2885
3050 3048 3047 3045 3043 3040 3037 3035 3032 3030 3027 3023 3020 3018 3015 3012 3009 3006 3004 3000 2998 2995 2993 2990 2987 2984 2981 2978 2975 2973 2970 2967 2965 2963 2960 2958 2955 2953 2951 2948 2946 2944 2942 2940 2938 2937 2935 2933 2932 2930 2929 2927 2926 2925 2923 2922 2921 2920 2918 2917 2916 2915 2914 2912 2911 2910 2909 2908 2907 2905 2904 2903 2902 2900 2899 2898 2896 2895 2894 2892 2891 2890 2888 2887 2886 2885
3049 3047 3045 3043 3041 3039 3036 3033 3030 3027 3025 3021 3018 3015 3013 3010 3007 3004 3002 2999 2995 2993 2990 2988 2985 2982 2979 2976 2973 2971 2968 2965 2963 2961 2958 2956 2954 2951 2949 2947 2945 2943 2941 2939 2937 2936 2934 2933 2931 2930 2928 2927 2925 2924 2923 2922 2920 2919 2918 2917 2916 2915 2914 2912 2911 2910 2909 2908 2907 2905 2904 2903 2901 2900 2899 2898 2896 2895 2894 2892 2891 2889 2888 2887 2885 2884
3048 3045 3043 3041 3039 3036 3034 3031 3028 3025 3022 3019 3016 3013 3010 3008 3005 3002 3000 2997 2994 2991 2988 2985 2983 2980 2977 2974 2971 2969 2966 2964 2961 2959 2956 2954 2952 2950 2947 2945 2943 2941 2940 2938 2937 2935 2934 2932 2930 2929 2928 2926 2925 2924 2923 2921 2920 2919 2918 2917 2916 2915 2914 2912 2911 2910 2909 2908 2906 2905 2904 2903 2901 2900 2899 2897 2896 2895 2893 2892 2890 2889 2888 2886 2885 2883
3046 3044 3041 3039 3036 3034 3031 3029 3026 3023 3020 3017 3015 3012 3009 3005 3002 3000 2997 2994 2992 2989 2986 2984 2981 2978 2975 2972 2969 2966 2964 2962 2960 2957 2955 2953 2950 2948 2946 2944 2942 2940 2939 2937 2936 2935 2933 2931 2930 2929 2927 2926 2925 2924 2922 2921 2920 2919 2918 2917 2916 2915 2914 2912 2911 2910 2909 2908 2906 2905 2904 2903 2901 2900 2898 2897 2895 2894 2893 2891 2890 2888 2887 2885 2884 2883
3045 3042 3040 3037 3035 3032 3029 3026 3024 3021 3018 3015 3012 3010 3007 3004 3001 2998 2995 2992 2989 2986 2984 2981 2979 2976 2973 2970 2967 2964 2962 2960 2958 2956 2954 2951 2949 2947 2945 2943 2941 2940 2938 2937 2935 2934 2932 2931 2930 2928 2927 2925 2925 2923 2922 2921 2920 2919 2918 2917 2916 2915 2914 2912 2911 2910 2909 2907 2906 2905 2904 2902 2901 2899 2898 2896 2895 2894 2892 2890 2889 2888 2886 2885 2883 2882
3042 3040 3038 3035 3032 3030 3027 3025 3022 3019 3015 3012 3009 3007 3004 3002 2999 2996 2993 2990 2987 2985 2981 2978 2976 2974 2971 2968 2965 2963 2960 2958 2956 2955 2952 2950 2948 2946 2944 2942 2941 2939 2938 2936 2935 2933 2932 2930 2929 2928 2926 2925 2924 2923 2922 2921 2920 2919 2918 2917 2915 2915 2913 2912 2911 2910 2909 2907 2906 2905 2903 2902 2900 2899 2897 2896 2894 2893 2891 2890 2888 2887 2885 2884 2882 2881
3040 3038 3035 3033 3030 3027 3024 3022 3020 3017 3014 3010 3007 3005 3001 2999 2996 2994 2991 2989 2986 2983 2980 2977 2973 2971 2969 2966 2964 2961 2959 2957 2955 2953 2951 2949 2947 2945 2943 2942 2940 2939 2937 2935 2934 2932 2931 2930 2928 2927 2926 2925 2924 2923 2922 2921 2920 2919 2918 2916 2915 2914 2913 2912 2911 2910 2908 2907 2905 2904 2903 2901 2900 2898 2896 2895 2894 2892 2890 2889 2887 2886 2884 2883 2881 2880
3039 3036 3033 3031 3029 3026 3022 3019 3016 3014 3012 3009 3006 3003 3000 2997 2993 2990 2988 2986 2984 2982 2979 2976 2973 2970 2966 2964 2963 2961 2958 2956 2954 2952 2950 2948 2946 2944 2943 2941 2939 2938 2936 2935 2933 2932 2930 2929 2928 2927 2926 2925 2924 2923 2922 2920 2920 2919 2917 2916 2915 2914 2913 2912 2910 2909 2908 2906 2905 2904 2902 2900 2899 2897 2896 2894 2893 2891 2890 2888 2886 2885 2883 2881 2880 2879
3037 3034 3031 3029 3026 3024 3021 3018 3015 3012 3009 3006 3004 3001 2999 2996 2992 2988 2985 2983 2980 2979 2977 2975 2973 2970 2966 2962 2960 2959 2957 2955 2953 2951 2949 2947 2945 2944 2942 2940 2939 2937 2935 2934 2932 2931 2930 2929 2928 2926 2925 2925 2923 2922 2921 2920 2919 2918 2917 2916 2915 2914 2913 2911 2910 2909 2907 2906 2905 2903 2901 2900 2898 2897 2895 2893 2892 2890 2888 2887 2885 2883 2882 2880 2879 2877
3035 3032 3030 3027 3024 3022 3020 3017 3014 3010 3007 3004 3001 2998 2995 2994 2991 2988 2985 2981 2978 2976 2973 2971 2970 2969 2966 2963 2959 2957 2955 2954 2952 2950 2948 2946 2945 2943 2941 2940 2938 2936 2935 2933 2932 2930 2930 2928 2927 2926 2925 2924 2923 2922 2921 2920 2919 2918 2917 2916 2915 2914 2912 2911 2910 2908 2907 2905 2904 2902 2901 2899 2898 2896 2894 2893 2891 2889 2887 2886 2884 2882 2880 2879 2877 2876
3033 3030 3028 3025 3023 3020 3017 3014 3011 3009 3006 3003 3000 2996 2992 2990 2988 2986 2983 2980 2978 2975 2972 2969 2967 2965 2965 2962 2960 2956 2954 2952 2951 2950 2948 2946 2944 2942 2940 2939 2937 2935 2934 2933 2931 2930 2929 2928 2927 2926 2925 2924 2923 2922 2921 2920 2919 2918 2917 2915 2914 2913 2912 2910 2909 2908 2906 2905 2903 2902 2900 2899 2897 2895 2894 2892 2890 2888 2886 2885 2883 2881 2879 2877 2876 2874
3031 3029 3026 3024 3021 3018 3015 3013 3009 3006 3003 3000 2998 2995 2991 2988 2985 2983 2980 2978 2976 2974 2972 2969 2965 2963 2961 2960 2958 2955 2953 2952 2950 2949 2947 2945 2944 2942 2940 2938 2936 2935 2934 2932 2931 2930 2929 2928 2927 2926 2925 2924 2923 2922 2921 2920 2919 2917 2916 2915 2914 2913 2911 2910 2909 2907 2906 2904 2903 2901 2900 2898 2896 2895 2893 2891 2889 2887 2885 2884 2882 2880 2878 2876 2874 2872
3030 3027 3024 3022 3019 3016 3014 3011 3007 3004 3001 2998 2995 2993 2990 2987 2984 2982 2979 2976 2974 2972 2970 2968 2965 2962 2960 2959 2957 2955 2952 2950 2949 2948 2946 2945 2943 2941 2939 2937 2936 2935 2933 2932 2931 2930 2929 2928 2927 2926 2925 2924 2923 2922 2920 2920 2918 2917 2916 2915 2914 2912 2911 2910 2908 2907 2905 2904 2902 2900 2899 2897 2895 2894 2892 2890 2888 2886 2885 2882 2880 2878 2876 2874 2872 2870
3028 3025 3022 3020 3017 3014 3012 3009 3005 3002 2998 2995 2993 2990 2987 2985 2982 2980 2978 2975 2973 2970 2969 2966 2964 2961 2959 2958 2957 2955 2952 2950 2948 2947 2945 2943 2941 2940 2938 2937 2935 2934 2933 2932 2931 2930 2929 2927 2926 2925 2925 2924 2922 2921 2920 2919 2918 2917 2915 2914 2913 2912 2910 2909 2908 2906 2905 2903 2901 2900 2898 2896 2895 2893 2891 2889 2887 2885 2883 2881 2879 2877 2875 2873 2870 2869
3026 3024 3020 3018 3015 3012 3010 3007 3004 3000 2997 2994 2991 2989 2986 2983 2980 2978 2976 2974 2972 2970 2968 2966 2964 2961 2958 2956 2955 2954 2952 2950 2947 2946 2944 2942 2940 2939 2938 2936 2935 2934 2933 2932 2930 2930 2928 2927 2926 2925 2924 2923 2922 2921 2920 2919 2918 2916 2915 2914 2912 2911 2910 2908 2907 2905 2904 2902 2900 2899 2897 2896 2894 2892 2890 2888 2886 2884 2882 2880 2877 2875 2873 2871 2869 2867
3025 3022 3019 3015 3013 3010 3007 3005 3002 2998 2995 2992 2989 2987 2985 2983 2980 2977 2975 2972 2970 2968 2965 2964 2963 2961 2958 2955 2953 2952 2951 2949 2946 2944 2943 2941 2940 2938 2937 2936 2935 2934 2933 2931 2930 2929 2928 2927 2926 2925 2924 2923 2922 2921 2920 2918 2917 2916 2915 2913 2912 2910 2909 2908 2906 2905 2903 2901 2900 2898 2896 2895 2893 2891 2889 2887 2885 2882 2880 2878 2876 2873 2871 2869 2867 2865
3023 3020 3017 3014 3010 3008 3005 3003 3000 2996 2993 2990 2988 2985 2982 2980 2978 2976 2973 2971 2969 2966 2964 2962 2960 2959 2957 2955 2952 2950 2949 2947 2945 2943 2942 2940 2939 2938 2937 2935 2935 2933 2932 2931 2930 2929 2928 2927 2926 2925 2924 2923 2922 2920 2919 2918 2916 2915 2914 2912 2911 2910 2908 2907 2905 2904 2902 2900 2899 2897 2895 2893 2891 2890 2887 2885 2883 2881 2879 2876 2874 2871 2869 2867 2865 2863
3021 3018 3015 3011 3008 3005 3003 3001 2998 2995 2992 2989 2986 2984 2981 2978 2976 2974 2971 2969 2967 2965 2963 2961 2959 2957 2955 2954 2952 2950 2948 2946 2945 2943 2941 2940 2939 2937 2936 2935 2934 2933 2932 2931 2930 2929 2928 2927 2925 2925 2924 2922 2921 2920 2919 2917 2916 2915 2913 2912 2910 2909 2907 2906 2904 2903 2901 2899 2897 2895 2894 2892 2890 2888 2885 2884 2881 2879 2877 2875 2872 2870 2868 2865 2863 2861
3018 3015 3013 3010 3006 3003 3000 2999 2996 2993 2990 2988 2985 2983 2980 2978 2975 2973 2970 2968 2966 2964 2962 2960 2958 2956 2954 2952 2950 2949 2947 2945 2944 2942 2941 2940 2938 2937 2936 2935 2934 2933 2932 2931 2930 2929 2927 2926 2925 2924 2923 2922 2920 2919 2918 2916 2915 2914 2912 2911 2910 2908 2906 2905 2903 2901 2900 2898 2896 2894 2892 2890 2888 2886 2884 2881 2880 2877 2875 2873 2870 2868 2866 2863 2861 2859
3016 3013 3010 3008 3005 3002 2999 2996 2994 2991 2989 2986 2984 2981 2979 2976 2974 2971 2969 2967 2965 2963 2961 2959 2957 2955 2953 2951 2949 2947 2946 2945 2943 2942 2940 2939 2938 2937 2935 2935 2934 2932 2931 2931 2930 2928 2927 2926 2925 2924 2923 2921 2920 2919 2917 2916 2915 2913 2911 2910 2909 2907 2905 2904 2902 2900 2898 2896 2894 2892 2890 2888 2886 2884 2882 2880 2877 2875 2873 2871 2869 2866 2864 2862 2859 2857
3014 3011 3008 3005 3003 3000 2997 2995 2992 2990 2987 2985 2982 2980 2977 2975 2972 2970 2967 2965 2964 2961 2960 2958 2956 2954 2952 2950 2949 2947 2945 2944 2943 2941 2940 2939 2938 2937 2935 2934 2933 2932 2931 2930 2929 2928 2927 2926 2925 2923 2922 2921 2919 2918 2916 2915 2914 2912 2911 2909 2908 2906 2904 2902 2900 2899 2896 2895 2892 2890 2888 2886 2884 2882 2880 2877 2875 2873 2871 2869 2867 2865 2862 2860 2858 2855
3012 3009 3006 3003 3001 2998 2996 2993 2991 2988 2986 2984 2981 2979 2977 2975 2972 2970 2967 2965 2963 2960 2959 2957 2955 2953 2951 2950 2948 2946 2945 2943 2942 2941 2940 2939 2937 2936 2935 2934 2933 2932 2930 2930 2929 2928 2927 2925 2924 2923 2921 2920 2919 2917 2916 2914 2913 2911 2910 2908 2906 2905 2903 2901 2899 2897 2895 2893 2890 2888 2886 2884 2882 2880 2877 2875 2873 2871 2869 2867 2865 2863 2860 2858 2856 2854
3010 3007 3005 3002 2999 2997 2994 2992 2989 2987 2984 2982 2980 2977 2975 2973 2971 2969 2967 2965 2962 2960 2958 2956 2954 2952 2950 2948 2947 2945 2944 2943 2942 2940 2940 2938 2937 2936 2935 2934 2933 2931 2930 2929 2928 2927 2926 2925 2924 2922 2921 2919 2918 2916 2915 2913 2912 2910 2909 2907 2905 2903 2901 2899 2897 2895 2893 2891 2889 2886 2884 2882 2880 2877 2875 2873 2870 2868 2867 2865 2863 2861 2859 2856 2854 2852
3009 3006 3003 3000 2998 2995 2993 2990 2988 2986 2983 2980 2978 2975 2973 2971 2969 2967 2965 2963 2961 2959 2956 2955 2953 2952 2950 2949 2947 2945 2944 2943 2942 2940 2939 2938 2937 2936 2935 2933 2932 2931 2930 2929 2927 2926 2925 2924 2923 2921 2920 2918 2917 2915 2914 2912 2911 2909 2907 2906 2904 2902 2900 2898 2895 2893 2891 2889 2887 2884 2882 2880 2877 2875 2872 2870 2868 2865 2864 2862 2860 2859 2856 2855 2852 2850
3007 3005 3002 2999 2996 2994 2991 2989 2987 2984 2982 2980 2977 2975 2972 2970 2968 2965 2964 2962 2960 2958 2956 2954 2952 2951 2950 2949 2947 2945 2944 2943 2942 2941 2939 2938 2937 2936 2935 2933 2932 2930 2929 2928 2927 2925 2924 2923 2922 2920 2919 2918 2916 2915 2913 2911 2910 2908 2906 2904 2902 2900 2898 2896 2894 2892 2890 2887 2885 2882 2880 2878 2875 2873 2870 2867 2865 2863 2861 2859 2858 2856 2854 2852 2850 2848
3005 3003 3000 2998 2995 2993 2990 2988 2985 2983 2980 2978 2976 2974 2972 2969 2967 2964 2962 2961 2959 2958 2956 2954 2952 2951 2949 2948 2947 2945 2944 2943 2942 2940 2939 2938 2936 2935 2934 2933 2931 2930 2929 2928 2926 2925 2923 2922 2921 2920 2918 2917 2915 2914 2912 2910 2909 2907 2905 2903 2901 2899 2897 2895 2893 2890 2888 2885 2883 2880 2878 2875 2873 2870 2868 2865 2862 2860 2858 2856 2855 2853 2852 2850 2848 2846
3005 3002 2999 2997 2994 2991 2989 2986 2984 2982 2980 2977 2975 2973 2971 2969 2966 2964 2962 2960 2959 2957 2955 2954 2952 2951 2949 2948 2947 2945 2944 2943 2941 2940 2939 2938 2936 2935 2933 2932 2931 2930 2929 2928 2926 2925 2923 2921 2920 2918 2917 2915 2914 2912 2911 2909 2907 2905 2904 2902 2900 2898 2895 2893 2891 2889 2886 2884 2881 2879 2876 2874 2871 2868 2865 2863 2860 2857 2855 2853 2852 2850 2849 2848 2846 2844
3004 3001 2998 2996 2993 2990 2988 2985 2983 2980 2978 2976 2974 2972 2970 2968 2966 2964 2962 2960 2958 2956 2955 2953 2952 2950 2949 2948 2947 2945 2944 2943 2941 2940 2939 2937 2936 2935 2933 2932 2930 2929 2928 2927 2926 2925 2923 2921 2919 2917 2916 2914 2913 2911 2910 2908 2906 2905 2903 2901 2899 2896 2894 2892 2890 2887 2885 2882 2880 2877 2874 2872 2869 2866 2864 2861 2858 2855 2853 2851 2849 2848 2846 2845 2844 2842
3002 3000 2997 2994 2992 2989 2987 2984 2982 2980 2978 2975 2973 2971 2969 2967 2965 2964 2962 2960 2958 2956 2955 2953 2951 2950 2949 2948 2946 2945 2944 2943 2941 2940 2938 2937 2935 2934 2933 2931 2930 2928 2927 2926 2925 2925 2924 2921 2919 2917 2915 2914 2912 2910 2908 2906 2905 2903 2901 2900 2898 2895 2893 2891 2888 2886 2884 2881 2878 2875 2873 2870 2868 2865 2862 2859 2856 2854 2851 2849 2846 2845 2844 2843 2841 2840
3001 2999 2996 2993 2991 2988 2986 2983 2981 2979 2977 2975 2972 2970 2968 2966 2965 2963 2961 2960 2958 2956 2955 2953 2951 2950 2949 2947 2946 2945 2944 2942 2941 2939 2938 2936 2935 2934 2932 2930 2929 2928 2926 2924 2923 2922 2922 2921 2920 2918 2915 2913 2911 2909 2907 2905 2904 2902 2900 2898 2896 2894 2892 2889 2887 2885 2882 2880 2877 2874 2872 2869 2866 2864 2861 2858 2855 2852 2849 2847 2845 2843 2841 2840 2839 2838
3000 2998 2995 2992 2990 2987 2985 2982 2980 2978 2975 2973 2971 2969 2967 2966 2964 2962 2960 2959 2957 2956 2954 2953 2951 2950 2949 2947 2946 2944 2943 2941 2940 2939 2937 2936 2935 2933 2931 2930 2928 2927 2925 2924 2922 2920 2919 2919 2918 2917 2915 2913 2911 2909 2907 2905 2903 2900 2899 2897 2895 2892 2890 2888 2885 2883 2880 2878 2875 2873 2870 2868 2865 2862 2859 2856 2853 2850 2848 2845 2843 2840 2839 2838 2837 2836
2999 2996 2994 2991 2988 2986 2984 2981 2979 2977 2975 2972 2970 2968 2966 2965 2963 2961 2960 2958 2957 2955 2954 2952 2951 2950 2948 2947 2946 2945 2943 2941 2940 2938 2937 2935 2934 2932 2931 2929 2928 2926 2925 2923 2921 2920 2918 2916 2915 2915 2914 2912 2910 2908 2906 2904 2902 2900 2897 2895 2893 2890 2888 2886 2883 2881 2878 2876 2873 2871 2868 2866 2863 2860 2857 2855 2851 2849 2846 2843 2841 2839 2837 2836 2835 2834
2997 2995 2992 2990 2987 2985 2982 2980 2978 2976 2974 2971 2970 2967 2965 2964 2962 2960 2959 2957 2956 2955 2954 2952 2951 2949 2948 2947 2946 2944 2943 2941 2940 2938 2936 2935 2933 2932 2930 2929 2927 2925 2924 2922 2921 2919 2917 2916 2914 2913 2912 2911 2909 2907 2905 2903 2900 2898 2896 2894 2891 2889 2886 2883 2881 2878 2876 2873 2871 2868 2866 2863 2861 2858 2855 2852 2850 2847 2844 2842 2840 2838 2836 2834 2833 2831
2996 2993 2991 2989 2986 2984 2981 2979 2977 2975 2973 2970 2969 2966 2965 2963 2961 2960 2958 2956 2955 2954 2953 2952 2950 2949 2948 2946 2945 2944 2942 2941 2939 2937 2936 2934 2933 2931 2930 2928 2926 2924 2923 2921 2920 2918 2916 2915 2913 2911 2910 2909 2907 2906 2904 2901 2899 2897 2895 2892 2890 2887 2884 2881 2879 2876 2874 2871 2869 2866 2863 2860 2858 2855 2853 2850 2847 2845 2842 2840 2838 2836 2835 2833 2831 2830
2995 2992 2990 2987 2985 2983 2980 2978 2976 2974 2971 2970 2967 2966 2964 2962 2960 2959 2957 2956 2955 2953 2952 2951 2950 2948 2947 2946 2944 2943 2941 2940 2939 2937 2935 2934 2932 2930 2929 2927 2925 2923 2922 2920 2919 2917 2915 2914 2912 2910 2908 2907 2905 2904 2902 2900 2898 2896 2893 2891 2888 2885 2883 2880 2877 2874 2871 2869 2866 2864 2861 2858 2856 2853 2850 2848 2845 2843 2841 2839 2837 2835 2833 2831 2830 2828
2994 2991 2989 2986 2984 2982 2979 2977 2975 2973 2970 2969 2966 2965 2963 2961 2960 2958 2957 2955 2954 2952 2951 2950 2949 2948 2946 2945 2944 2942 2941 2939 2938 2936 2935 2933 2931 2930 2928 2926 2924 2923 2920 2919 2917 2916 2914 2912 2911 2909 2908 2905 2904 2902 2900 2898 2896 2894 2892 2889 2887 2884 2881 2878 2875 2872 2870 2867 2864 2862 2859 2856 2854 2851 2849 2846 2844 2842 2840 2837 2835 2834 2832 2830 2829 2827
2993 2990 2987 2985 2982 2980 2978 2975 2974 2971 2970 2968 2966 2964 2962 2961 2959 2958 2956 2954 2953 2951 2950 2949 2948 2946 2945 2944 2943 2941 2940 2938 2937 2935 2934 2932 2930 2929 2927 2925 2924 2922 2920 2918 2916 2914 2913 2911 2909 2907 2906 2905 2903 2900 2898 2896 2894 2892 2890 2887 2885 2882 2879 2876 2873 2870 2868 2865 2862 2860 2857 2854 2852 2849 2847 2844 2842 2840 2838 2836 2834 2832 2831 2829 2828 2826
2991 2989 2986 2984 2981 2979 2976 2974 2972 2971 2969 2967 2965 2964 2962 2960 2959 2957 2956 2954 2952 2951 2949 2948 2946 2945 2944 2943 2942 2940 2939 2938 2936 2934 2933 2931 2930 2928 2926 2924 2923 2921 2919 2917 2915 2913 2911 2910 2908 2905 2904 2902 2901 2899 2897 2894 2892 2889 2887 2885 2883 2880 2878 2875 2871 2869 2866 2863 2860 2858 2855 2853 2850 2848 2845 2843 2840 2838 2836 2834 2832 2831 2829 2828 2827 2825
2990 2987 2985 2982 2980 2978 2976 2974 2972 2970 2969 2967 2965 2963 2962 2960 2959 2957 2955 2954 2952 2950 2949 2947 2946 2945 2943 2942 2941 2940 2938 2937 2935 2934 2932 2930 2928 2927 2925 2923 2921 2920 2918 2916 2914 2912 2910 2908 2906 2905 2902 2900 2899 2897 2895 2893 2890 2887 2885 2882 2880 2878 2876 2873 2870 2867 2864 2861 2858 2856 2854 2851 2849 2846 2844 2841 2839 2836 2834 2832 2830 2829 2827 2826 2825 2824
2988 2986 2984 2981 2979 2977 2975 2974 2972 2970 2968 2967 2965 2963 2961 2960 2958 2957 2955 2954 2952 2950 2949 2947 2945 2944 2943 2941 2940 2939 2937 2936 2935 2933 2931 2930 2928 2926 2924 2922 2921 2919 2917 2915 2914 2911 2909 2907 2905 2903 2901 2899 2897 2895 2894 2891 2889 2885 2883 2880 2878 2876 2874 2871 2868 2865 2862 2859 2857 2855 2852 2850 2848 2845 2843 2840 2838 2835 2833 2830 2829 2827 2825 2824 2823 2822
2988 2985 2983 2981 2979 2977 2975 2973 2971 2970 2968 2966 2965 2963 2962 2960 2959 2957 2955 2954 2952 2950 2949 2947 2946 2944 2942 2941 2940 2938 2937 2935 2934 2932 2930 2929 2927 2925 2923 2921 2920 2918 2916 2915 2913 2910 2908 2906 2904 2902 2900 2898 2896 2894 2892 2890 2887 2885 2881 2879 2876 2874 2871 2869 2866 2863 2860 2858 2855 2853 2851 2849 2846 2844 2842 2839 2836 2834 2831 2829 2827 2825 2824 2822 2821 2820
2987 2985 2983 2980 2979 2977 2975 2973 2971 2969 2967 2965 2964 2963 2961 2960 2958 2957 2955 2954 2952 2950 2949 2947 2946 2944 2942 2941 2939 2938 2936 2935 2933 2931 2930 2928 2926 2925 2923 2921 2919 2917 2915 2913 2911 2909 2907 2905 2903 2900 2898 2896 2894 2892 2890 2887 2885 2883 2880 2877 2874 2871 2868 2866 2864 2862 2859 2857 2854 2852 2850 2847 2845 2843 2840 2838 2835 2833 2830 2828 2826 2824 2823 2821 2820 2819
2986 2984 2982 2980 2978 2976 2974 2972 2970 2969 2967 2965 2963 2962 2960 2959 2957 2956 2955 2953 2952 2950 2949 2947 2945 2944 2942 2941 2939 2937 2936 2934 2932 2931 2929 2928 2926 2924 2922 2920 2918 2916 2914 2912 2910 2908 2906 2904 2901 2899 2897 2895 2892 2890 2888 2885 2883 2881 2879 2876 2873 2870 2867 2864 2862 2860 2858 2855 2853 2851 2849 2846 2844 2842 2840 2837 2835 2832 2829 2827 2825 2824 2822 2820 2819 2818
2985 2983 2981 2979 2977 2975 2973 2971 2970 2968 2966 2965 2963 2961 2960 2958 2957 2955 2954 2952 2951 2950 2948 2947 2945 2943 2942 2940 2939 2937 2936 2934 2932 2930 2929 2927 2925 2924 2922 2920 2918 2915 2913 2911 2909 2906 2904 2902 2900 2898 2896 2894 2892 2889 2886 2884 2881 2879 2877 2875 2872 2869 2866 2864 2861 2859 2856 2854 2852 2850 2848 2845 2843 2841 2839 2836 2834 2831 2829 2826 2825 2823 2821 2820 2818 2817
2985 2982 2980 2978 2976 2974 2972 2971 2969 2967 2965 2964 2962 2961 2959 2958 2956 2955 2954 2952 2950 2949 2947 2946 2944 2943 2941 2940 2939 2937 2936 2934 2933 2931 2929 2927 2925 2924 2922 2920 2918 2916 2913 2911 2908 2906 2903 2901 2899 2897 2895 2893 2891 2888 2885 2883 2880 2877 2875 2873 2870 2868 2865 2863 2860 2858 2855 2853 2851 2849 2847 2845 2842 2840 2838 2835 2833 2830 2828 2826 2824 2822 2821 2819 2818 2817
2984 2982 2980 2978 2975 2974 2972 2970 2968 2966 2965 2963 2962 2960 2959 2957 2955 2954 2953 2951 2950 2948 2947 2945 2944 2942 2940 2939 2938 2936 2935 2934 2932 2931 2929 2928 2926 2924 2922 2920 2918 2916 2914 2911 2909 2906 2904 2901 2898 2896 2894 2892 2890 2887 2885 2881 2879 2876 2873 2870 2868 2866 2864 2862 2859 2857 2855 2852 2850 2848 2845 2843 2841 2839 2837 2835 2832 2830 2828 2825 2823 2822 2820 2819 2818 2816
2983 2981 2979 2977 2975 2973 2971 2969 2968 2966 2964 2963 2961 2960 2958 2956 2955 2953 2952 2950 2949 2948 2946 2944 2943 2941 2940 2938 2937 2935 2934 2933 2931 2930 2929 2927 2926 2924 2922 2920 2918 2916 2914 2912 2910 2907 2905 2901 2898 2895 2893 2890 2888 2885 2883 2880 2877 2874 2871 2869 2866 2864 2862 2860 2858 2856 2854 2852 2849 2847 2845 2842 2840 2838 2835 2834 2832 2830 2827 2825 2823 2821 2820 2819 2817 2816
2983 2980 2978 2976 2974 2972 2970 2969 2967 2966 2964 2962 2961 2959 2957 2956 2955 2953 2951 2950 2948 2947 2945 2944 2942 2940 2939 2938 2936 2935 2933 2932 2930 2929 2928 2926 2925 2923 2922 2920 2918 2916 2915 2912 2910 2908 2905 2902 2899 2895 2892 2889 2886 2883 2880 2878 2875 2873 2870 2868 2865 2863 2860 2858 2857 2855 2853 2850 2849 2846 2844 2841 2839 2837 2835 2833 2831 2829 2827 2825 2823 2821 2820 2818 2817 2816
2982 2980 2978 2976 2974 2972 2970 2969 2967 2965 2964 2962 2960 2959 2957 2955 2954 2952 2950 2949 2947 2946 2944 2943 2941 2940 2938 2937 2935 2934 2932 2931 2930 2928 2926 2925 2923 2922 2920 2919 2917 2915 2914 2912 2910 2908 2905 2903 2899 2895 2891 2888 2884 2881 2879 2876 2874 2871 2869 2867 2864 2861 2859 2857 2855 2853 2851 2850 2847 2845 2843 2841 2839 2836 2834 2832 2830 2829 2826 2824 2822 2820 2819 2818 2817 2816
2981 2979 2977 2975 2974 2972 2970 2968 2966 2965 2963 2961 2960 2958 2956 2955 2953 2951 2950 2948 2946 2945 2943 2942 2940 2939 2937 2936 2935 2933 2931 2930 2929 2927 2925 2924 2922 2920 2918 2917 2915 2913 2912 2910 2908 2906 2904 2902 2900 2897 2893 2888 2884 2881 2878 2875 2872 2870 2868 2866 2863 2860 2858 2856 2854 2852 2850 2848 2846 2844 2842 2840 2838 2835 2833 2831 2830 2828 2826 2824 2822 2820 2819 2818 2816 2815